RADUGA 32 [-]

Last updated on Wed Jun 28 2023 00:02:57 GMT+0000 (Coordinated Universal Time)

1 23448U 94087A 23177.70411961 -.00000071 00000+0 00000+0 0 9995 2 23448 14.5895 359.1766 0005441 195.0336 45.2840 1.00280871122042
UTC large
Height (km)
Speed (km/s)
/
Latitude / Longitude
Inclination (degrees)
Orbital Period (minutes)
Azimuth
Elevation
Range (km)
Doppler Factor

Next 0 passes for location: London (51.5072 / 0.1276)

Sorry there are no passes over London.